[[{"header":{"parameterUnit":"m.s-1","parameterCategory":1,"la1":30.2991,"la2":30.254,"lo1":-89.0895,"lo2":-89.0444,"dy":0.0017,"dx":0.0017,"nx":28,"ny":28,"refTime":"2024-06-03T21:00:00:Z","depth":0,"parameterNumber":2,"parameterNumberName":"U-component_of_WINDS"},"data":[0,0,0,0,0,0,0,0,0,0,0,0,0,0,0,0,0,0,0,0,0,0,0,0,0,0,0,0,0,0,0,0,0,0,0,0,0,0,0,0,0,0,0,0,0,0,0,0,0,0,0,0,0,0,0,0,0,0,-2.4773,-2.4774,0,-2.4862,-2.4863,-2.4864,-2.4868,-2.4867,-2.4866,-2.4865,-2.4955,-2.4958,-2.4962,0,0,0,0,0,0,0,0,0,0,0,0,0,-2.4606,-2.4609,-2.4773,-2.4774,-2.4775,-2.4862,-2.4863,-2.4864,-2.4868,-2.4867,-2.4866,-2.4864,-2.4954,-2.4958,-2.4962,0,0,0,0,0,0,0,0,0,0,0,0,0,-2.4685,-2.461,-2.4772,-2.4787,-2.479,-2.4861,-2.4863,-2.4864,-2.4868,-2.4867,-2.4865,-2.4864,-2.4953,-2.4958,-2.4963,-2.5025,0,0,-2.4978,-2.498,0,0,0,0,0,0,0,0,-2.4681,-2.4691,-2.4784,-2.4787,-2.4789,-2.4852,-2.4837,-2.4918,-2.4869,-2.4838,-2.4865,-2.4863,-2.4922,-2.493,-2.495,-2.503,-2.5033,-2.4979,-2.4982,-2.4984,-2.4985,0,0,0,0,0,0,0,-2.4675,-2.4687,-2.4808,-2.4785,-2.4789,-2.479,-2.4799,-2.4853,-2.4888,-2.4841,-2.4841,-2.4852,-2.4923,-2.4945,-2.4952,-2.5035,-2.4978,-2.4983,-2.4986,-2.4988,-2.5171,-2.5173,0,0,0,0,0,0,-2.4667,-2.4683,-2.4805,-2.4811,-2.473,-2.4794,-2.4805,-2.4833,-2.4887,-2.4894,-2.4853,-2.4852,-2.4937,-2.4946,-2.4955,-2.5032,-2.4984,-2.4989,-2.4992,-2.5169,-2.5171,-2.5173,0,0,0,0,0,0,-2.4663,-2.4678,-2.4801,-2.4747,-2.4763,-2.4798,-2.4831,-2.4836,-2.4858,-2.4897,-2.4903,-2.4869,-2.4936,-2.4948,-2.5008,-2.5035,-2.4991,-2.4995,-2.5167,-2.517,-2.5172,-2.5186,0,0,0,0,0,0,-2.4658,-2.4676,-2.47,-2.4747,-2.4766,-2.4853,-2.4833,-2.4839,-2.4867,-2.4866,-2.4913,-2.4919,-2.4936,-2.5,-2.5013,-2.5041,-2.4999,-2.5165,-2.5168,-2.5171,-2.5183,-2.5189,-2.5194,0,0,0,0,0,-2.4652,-2.47,-2.4702,-2.4716,-2.4797,-2.4854,-2.4865,-2.4883,-2.4869,-2.4893,-2.4918,-2.4918,-2.503,-2.5007,-2.5021,-2.5051,-2.5163,-2.5167,-2.5171,-2.5181,-2.5188,-2.5193,0,0,0,0,0,0,-2.4655,-2.4707,-2.4709,-2.4773,-2.481,-2.4855,-2.4886,-2.489,-2.493,-2.4928,-2.4948,-2.4959,-2.5019,-2.5041,-2.5013,-2.5115,-2.5095,-2.5102,-2.5097,-2.5104,-2.5109,-2.5102,-2.5004,0,0,0,0,0,-2.4663,-2.4706,-2.4749,-2.4802,-2.482,-2.485,-2.4876,-2.4887,-2.4925,-2.494,-2.497,-2.5007,-2.5051,-2.5079,-2.5121,-2.5187,-2.5197,-2.5215,-2.522,-2.5224,-2.523,-2.5266,-2.5274,-2.5187,-2.5187,-2.5187,0,0,-2.468,-2.4714,-2.474,-2.4803,-2.4833,-2.4876,-2.4863,-2.491,-2.4942,-2.4948,-2.5006,-2.5029,-2.5072,-2.5135,-2.5164,-2.5155,-2.5256,-2.5229,-2.5232,-2.5236,-2.5271,-2.5279,-2.5287,-2.519,-2.5189,-2.5189,0,0,-2.4734,-2.4764,-2.4811,-2.4841,-2.4886,-2.4906,-2.4917,-2.4963,-2.4978,-2.5038,-2.5042,-2.5082,-2.5157,-2.5187,-2.5212,-2.5279,-2.5279,-2.5292,-2.5318,-2.5354,-2.5361,-2.5367,-2.539,-2.5398,-2.5298,-2.5298,-2.5298,0,-2.4749,-2.4815,-2.4835,-2.4882,-2.491,-2.4917,-2.4965,-2.4994,-2.505,-2.5069,-2.5059,-2.5153,-2.5183,-2.5253,-2.5269,-2.529,-2.5303,-2.5286,-2.5358,-2.5365,-2.5371,-2.5393,-2.5402,-2.5299,-2.5299,-2.5299,-2.5298,0,-2.4832,-2.4878,-2.4911,-2.4966,-2.4997,-2.5045,-2.5071,-2.5101,-2.511,-2.5131,-2.5191,-2.5227,-2.5277,-2.5295,-2.5304,-2.5367,-2.536,-2.5354,-2.5334,-2.538,-2.5401,-2.541,-2.53,-2.53,-2.53,-2.5299,0,0,-2.4888,-2.4954,-2.4965,-2.499,-2.5041,-2.5077,-2.5125,-2.5174,-2.5199,-2.5238,-2.5279,-2.5343,-2.5338,-2.5366,-2.5379,-2.541,-2.546,-2.54,-2.5401,-2.5409,-2.5531,-2.5535,-2.5544,-2.5462,-2.5463,-2.5465,-2.5528,0,-2.4947,-2.5032,-2.5051,-2.5125,-2.5167,-2.5176,-2.5218,-2.5253,-2.5275,-2.5314,-2.5338,-2.5383,-2.5373,-2.539,-2.5421,-2.5447,-2.5484,-2.5443,-2.5499,-2.5501,-2.5487,-2.5556,-2.556,-2.5617,-2.5536,-2.5537,-2.5539,0,-2.5026,-2.5067,-2.5144,-2.519,-2.5209,-2.5246,-2.5293,-2.533,-2.5371,-2.5385,-2.5417,-2.5427,-2.5477,-2.5457,-2.5526,-2.5497,-2.5522,-2.5538,-2.5541,-2.5546,-2.5521,-2.5562,-2.5636,-2.5644,-2.5552,-2.5551,-2.555,0,-2.5058,-2.5133,-2.5189,-2.521,-2.5265,-2.5291,-2.5315,-2.5354,-2.5383,-2.5424,-2.5443,-2.5489,-2.5515,-2.555,-2.5572,-2.5555,-2.564,-2.5621,-2.5652,-2.5652,-2.5669,-2.5667,-2.5747,-2.5686,-2.5686,-2.5686,-2.5686,0,-2.5121,-2.5168,-2.5204,-2.5239,-2.5292,-2.5314,-2.5366,-2.539,-2.5425,-2.5465,-2.5475,-2.5512,-2.5539,-2.558,-2.5597,-2.5652,-2.5664,-2.5676,-2.568,-2.5674,-2.5673,-2.569,-2.5686,-2.5688,-2.5688,-2.5687,-2.5687,0,-2.5165,-2.5192,-2.5254,-2.5301,-2.5313,-2.535,-2.5391,-2.5425,-2.5447,-2.5496,-2.5509,-2.5544,-2.5592,-2.5618,-2.5679,-2.5691,-2.5752,-2.5754,-2.5738,-2.5739,-2.5769,-2.5765,-2.5861,-2.5875,-2.5806,-2.5806,-2.5807,0,-2.5203,-2.5239,-2.529,-2.5317,-2.5342,-2.5386,-2.5415,-2.5439,-2.5469,-2.5519,-2.5547,-2.5596,-2.5636,-2.5713,-2.5743,-2.579,-2.5793,-2.5823,-2.58,-2.5793,-2.5792,-2.5789,-2.5793,-2.5827,-2.5827,-2.5828,-2.5828,0,-2.5267,-2.5278,-2.532,-2.5367,-2.5402,-2.544,-2.5477,-2.5499,-2.5529,-2.5562,-2.5612,-2.5643,-2.5706,-2.5754,-2.5803,-2.5828,-2.5833,-2.5836,-2.5845,-2.584,-2.5829,-2.5834,-2.5748,-2.5833,-2.5833,-2.5832,-2.5832,-2.5832,-2.5309,-2.5341,-2.5383,-2.5429,-2.546,-2.5495,-2.5529,-2.5556,-2.5598,-2.565,-2.5662,-2.5714,-2.5755,-2.5821,-2.5848,-2.5889,-2.5883,-2.5897,-2.59,-2.5903,-2.5904,-2.5823,-2.5898,-2.5898,-2.5898,-2.5898,-2.5898,0,-2.5373,-2.54,-2.5442,-2.5495,-2.5531,-2.5534,-2.5576,-2.5606,-2.5652,-2.569,-2.5729,-2.5787,-2.5834,-2.5869,-2.5917,-2.5944,-2.5947,-2.5955,-2.5953,-2.5959,-2.5907,-2.5893,-2.5951,-2.5951,-2.5951,-2.5951,-2.5951,-2.5951,-2.541,-2.5466,-2.5482,-2.5553,-2.558,-2.5632,-2.5655,-2.5688,-2.5718,-2.5781,-2.5821,-2.5843,-2.588,-2.5931,-2.5975,-2.5984,-2.6001,-2.6008,-2.6017,-2.5968,-2.5962,-2.5957,-2.5944,-2.6012,-2.6012,-2.6066,-2.6066,-2.6067]},{"header":{"parameterUnit":"m.s-1","parameterCategory":1,"la1":30.2991,"la2":30.254,"lo1":-89.0895,"lo2":-89.0444,"dy":0.0017,"dx":0.0017,"nx":28,"ny":28,"refTime":"2024-06-03T21:00:00:Z","depth":0,"parameterNumber":3,"parameterNumberName":"V-component_of_WINDS"},"data":[0,0,0,0,0,0,0,0,0,0,0,0,0,0,0,0,0,0,0,0,0,0,0,0,0,0,0,0,0,0,0,0,0,0,0,0,0,0,0,0,0,0,0,0,0,0,0,0,0,0,0,0,0,0,0,0,0,0,5.4163,5.4164,0,5.4255,5.4256,5.4257,5.421,5.4208,5.4206,5.4203,5.4292,5.4297,5.4302,0,0,0,0,0,0,0,0,0,0,0,0,0,5.3942,5.3946,5.4163,5.4164,5.4165,5.4255,5.4256,5.4257,5.4211,5.4208,5.4205,5.4202,5.4291,5.4296,5.4302,0,0,0,0,0,0,0,0,0,0,0,0,0,5.4036,5.3948,5.4163,5.4153,5.4153,5.4255,5.4256,5.4258,5.4211,5.4208,5.4204,5.4201,5.4289,5.4296,5.4303,5.4418,0,0,5.4324,5.4327,0,0,0,0,0,0,0,0,5.4031,5.4045,5.4153,5.4154,5.4154,5.4218,5.4211,5.4311,5.4212,5.4189,5.4203,5.4199,5.427,5.4278,5.4303,5.4422,5.4426,5.4324,5.4329,5.4332,5.4334,0,0,0,0,0,0,0,5.4025,5.404,5.4199,5.4155,5.4155,5.4142,5.4152,5.423,5.4249,5.4191,5.4188,5.4199,5.427,5.4297,5.4305,5.4427,5.4324,5.433,5.4335,5.4337,5.4644,5.4648,0,0,0,0,0,0,5.4019,5.4035,5.4196,5.4202,5.4083,5.4149,5.416,5.4201,5.4248,5.4251,5.4202,5.4197,5.4287,5.4297,5.4308,5.4446,5.4332,5.4338,5.4342,5.464,5.4645,5.465,0,0,0,0,0,0,5.4015,5.4034,5.4193,5.4118,5.4137,5.4157,5.4203,5.4205,5.4232,5.4257,5.4259,5.4227,5.4284,5.4298,5.4391,5.4448,5.4341,5.4348,5.4636,5.4642,5.4647,5.4723,0,0,0,0,0,0,5.4009,5.4033,5.4078,5.4119,5.4141,5.4276,5.4207,5.4209,5.4245,5.4238,5.428,5.4284,5.4283,5.4381,5.4398,5.4456,5.4353,5.4631,5.4638,5.4646,5.4715,5.4731,5.4744,0,0,0,0,0,5.4001,5.4094,5.408,5.41,5.4198,5.4279,5.4292,5.429,5.4249,5.4294,5.431,5.4283,5.444,5.4391,5.441,5.4471,5.4627,5.4636,5.4645,5.4709,5.4727,5.4743,0,0,0,0,0,0,5.4057,5.41,5.4085,5.4195,5.4234,5.4271,5.4328,5.431,5.436,5.4352,5.4346,5.4356,5.4452,5.447,5.4416,5.4584,5.4527,5.454,5.4569,5.4587,5.4601,5.4594,5.4359,0,0,0,0,0,5.4083,5.4147,5.4179,5.4273,5.4294,5.4308,5.4343,5.4338,5.4378,5.4394,5.4416,5.4455,5.4512,5.4551,5.4605,5.4718,5.4726,5.4769,5.4783,5.4794,5.4806,5.4866,5.4885,5.4679,5.4679,5.4679,0,0,5.4135,5.4167,5.4207,5.4285,5.4315,5.438,5.4322,5.4393,5.444,5.4404,5.4494,5.4512,5.4554,5.4657,5.4703,5.4675,5.4865,5.4806,5.4815,5.482,5.4877,5.4897,5.4914,5.4685,5.4684,5.4683,0,0,5.4265,5.4295,5.4377,5.4408,5.4455,5.4464,5.4483,5.4524,5.4535,5.4625,5.4599,5.4655,5.4755,5.4786,5.4815,5.4957,5.4933,5.4975,5.5049,5.5108,5.5124,5.5138,5.5188,5.5207,5.4986,5.4986,5.4986,0,5.4324,5.4423,5.442,5.4494,5.4529,5.4501,5.4583,5.4613,5.4674,5.4698,5.4666,5.4791,5.4818,5.4928,5.4963,5.4987,5.5008,5.4969,5.5122,5.5136,5.515,5.5197,5.5216,5.4991,5.499,5.499,5.4989,0,5.4493,5.4561,5.4621,5.4684,5.4725,5.4802,5.4811,5.4853,5.4844,5.4856,5.4947,5.4978,5.5039,5.5065,5.5056,5.5174,5.5155,5.5123,5.5065,5.5174,5.5219,5.5237,5.4997,5.4996,5.4994,5.4993,0,0,5.466,5.4721,5.4743,5.4771,5.482,5.4872,5.4948,5.5009,5.5045,5.5088,5.515,5.5236,5.5207,5.524,5.5235,5.5287,5.5397,5.5248,5.5249,5.5274,5.5527,5.555,5.5572,5.5381,5.5385,5.5388,5.5523,0,5.4793,5.4927,5.4927,5.505,5.5113,5.5087,5.5152,5.5189,5.5202,5.5256,5.5269,5.533,5.5287,5.5307,5.5357,5.5373,5.5447,5.5363,5.5438,5.5441,5.5428,5.5595,5.562,5.5747,5.5541,5.5544,5.5546,0,5.4965,5.5016,5.5146,5.5187,5.5213,5.5272,5.5328,5.538,5.5421,5.5426,5.5464,5.5451,5.5526,5.5467,5.557,5.5512,5.5543,5.5555,5.556,5.5567,5.55,5.5606,5.5787,5.5806,5.5573,5.5571,5.5569,0,5.5074,5.5175,5.5265,5.529,5.534,5.5382,5.5404,5.5442,5.5478,5.5526,5.555,5.5605,5.5636,5.5679,5.5681,5.5637,5.5785,5.5725,5.579,5.579,5.5822,5.582,5.601,5.5843,5.5842,5.5842,5.5842,0,5.5222,5.5302,5.5315,5.5371,5.546,5.5459,5.5546,5.5564,5.5598,5.5656,5.5636,5.569,5.569,5.5745,5.5747,5.5831,5.5845,5.5851,5.585,5.5853,5.5852,5.5872,5.5863,5.5847,5.5846,5.5845,5.5844,0,5.5358,5.537,5.5467,5.5507,5.5519,5.5583,5.5616,5.5668,5.5679,5.5752,5.5769,5.5787,5.585,5.5857,5.593,5.5931,5.6034,5.6024,5.6021,5.6019,5.6084,5.6077,5.6294,5.6322,5.6136,5.6138,5.6139,0,5.5452,5.5513,5.556,5.5598,5.5624,5.5685,5.5723,5.5724,5.5764,5.5815,5.5861,5.5923,5.5973,5.6075,5.6093,5.6149,5.614,5.6212,5.6148,5.6148,5.6141,5.6137,5.6143,5.6224,5.6226,5.6228,5.6229,0,5.5617,5.562,5.5676,5.5734,5.578,5.5826,5.5868,5.59,5.5906,5.5952,5.6017,5.6056,5.6132,5.6193,5.6249,5.6269,5.625,5.6249,5.6267,5.627,5.6266,5.6269,5.6054,5.6244,5.6243,5.6241,5.6241,5.624,5.5735,5.5788,5.583,5.5892,5.5925,5.5965,5.6017,5.6035,5.609,5.6153,5.615,5.6222,5.6261,5.6333,5.6358,5.6414,5.639,5.6416,5.6422,5.6429,5.6435,5.6257,5.6424,5.6423,5.6423,5.6423,5.6422,0,5.5898,5.5924,5.5982,5.6043,5.6092,5.6072,5.6118,5.616,5.6224,5.6263,5.6312,5.6388,5.6447,5.647,5.6528,5.6568,5.6561,5.6583,5.658,5.6585,5.6454,5.6433,5.6588,5.6588,5.6588,5.6588,5.6588,5.6588,5.5989,5.6079,5.6087,5.6191,5.6216,5.6288,5.6316,5.6353,5.6383,5.6469,5.6519,5.6534,5.6566,5.6626,5.6679,5.6684,5.6706,5.6733,5.6734,5.6611,5.6594,5.6578,5.6558,5.6738,5.6738,5.6861,5.6862,5.6863]}]]